Погода Алуксне

Погода Алуксне : погода сейчас, прогноз погоды и архив. Всё, что Вы хотите узнать о погоде Алуксне!

Поиск расширенной информации на нашем сайте:

Другие новости

Новости СМИ2

Главная страница сайта

Новости сайта

03.07.2017

Напоминаем, что на нашем специализированном сайте Метеоцентр.Азия вы можете получить высокодетализированные автоматические прогнозы погоды по пунктам России, СНГ и мира в авиационном формате (включающие направление и скорость ветра, видимость, явления погоды, количество и форму облачности, нижнюю и верхнюю границу облачности).

Рекомендуем: Прикольный подарок - Авто номера - автомобильные номера имена

Погода Алуксне - сегодня

Время (UTC), дата Ветер
(°,м/с) 
Видим.   Явления Облачность Т
(°С)
Тd
(°С)
f(%) Тe
(°С)
Pmin
(гПа)
dP
(гПа)
Po
(мм)
O2
(г/м3)
Тmin Tmax R s Состояние
почвы
15 17.10.17 240 (ЮЗ) 10 км  {ливн. осадки}  10/10 300 м 
[St]
+11.2 +10.2 94 +13  1011.9  -2.2  742  285           
18 17.10.17 250 (З) 4{13}  10 км  {ливн. осадки}  10/10 300 м 
[St]
+12.6 +11.1 91 +15  1008.2  -3.5  739  282    +12.6  0.0     
21 17.10.17 270 (З) 5-10{11}  10 км    8/8 300 м 
[St]
+13 +10.5 85 +14  1006.5  -1.6  738  281           
00 18.10.17 270 (З) 4{12}  10 км    8/8 300 м 
[St]
+11.9 +9.4 85 +12  1006.2  -0.4  737  283           
03 18.10.17 250 (З) 10 км    8/0 средняя 
[Ac lent]
+10.7 +7.5 81 +10  1005.2  -1.1  737  284           
06 18.10.17 270 (З) 3{10}  10 км    8/8 300 м средняя 
[St|Ac lent]
+9.8 +7.3 84 +9  1004.6  -0.6  736  284  +9.5         
09 18.10.17 270 (З) 5{13}  10 км    10/10 300 м 
[St]
+11.3 +8.1 81 +10  1004.7  0.2  736  283           
12 18.10.17 290 (З) 5-10{13}  4000 м  ливневой дождь  10/10 300 м кучево-дожд. 
[Cb cap]
+10.3 +9.6 95 +10  1006.1  1.3  737  284           
15 18.10.17 300 (СЗ) 4{11}  10 км  {ливн. осадки}  8/8 300 м кучево-дожд. 
[Cb calv]
+8.3 +6.5 88 +7  1009.2  2.8  739  287           
18 18.10.17 280 (З) 2{11}  10 км  {ливн. осадки}  ясно 
+4.9 +3.6 91 +5  1011.8  2.3  741  292    +11.3     
21 18.10.17 290 (З) 10 км    ясно 
+4 +3.4 96 +3  1013.3  1.3  742  293           
00 19.10.17 280 (З) 10 км    ясно 
+3.6 +3.4 99 +3  1014.4  1.1  743  295           
03 19.10.17 290 (З) 10 км    9/9 600 м 
[Sc]
+4.7 +4.3 97 +4  1015.2  0.9  744  293           
06 19.10.17 300 (СЗ) 10 км    9/9 600 м 
[Sc]
+5.8 +5.3 97 +6  1016.6  1.4  745  292  +3.4         
09 19.10.17 300 (СЗ) 10 км    8/8 1000 м 
[Sc]
+8.4 +6 85 +8  1017.9  1.5  746  290           
12 19.10.17 330 (СЗ) 10 км  слаб. ливневой дождь  8/8 300 м кучево-дожд. 
[Cb cap]
+8.9 +4.4 73 +8  1018.6  0.7  746  290           
15 19.10.17 310 (СЗ) 10 км  {ливн. осадки}  8/8 600 м 
[Sc diur, vesp]
+6.4 +5.3 93 +7  1019.5  0.7  747  292           
18 19.10.17 270 (З) 10 км  {ливн. осадки}  6/6 300 м 
[St]
+4.2 +3.7 97 +5  1020.5  0.8  747  295    +9.9  0.3     
21 19.10.17 290 (З) 10 км    9/9 300 м 
[St]
+4.9 +4.2 95 +6  1021.5  748  295           
00 20.10.17 280 (З) 10 км    6/6 300 м 
[St]
+3.3 +3.2 99 +4  1021.9  0.3  748  297           
03 20.10.17 290 (З) 2000 м  дымка  10/10 300 м 
[St]
+1.1 +1 99 +2  1022.9  0.7  749  300           
06 20.10.17 тихо ()   0600 м  туман  ?/?  
-0.3 -0.4 99 -0  1023.8  0.8  750  302  -0.6         
09 20.10.17 080 (В) 10 км  {туман}  3/3 1000 м 
[Cu hum]
+7.1 +5 86 +8  1023.7  0.6  750  293           
12 20.10.17 030 (СВ) 10 км  {туман}  3/3 1000 м 
[Cu med, cong]
+7.8 +2 67 +8  1023.5  -0.2  749  293           
15 20.10.17 тихо ()   10 км    ясно 
+4.2 +1.7 84 +4  1023.6  -0.2  750  297           
Время (UTC), дата Ветер
(°,м/с) 
Видим.   Явления Облачность Т
(°С)
Тd
(°С)
f(%) Тe
(°С)
Pmin
(гПа)
dP
(гПа)
Po
(мм)
O2
(г/м3)
Тmin Tmax R s Состояние
почвы

Для получения пояснительной информации подведите курсор к названию столбца.

ПОГОДА Алуксне - архив

Всё, что Вы хотите узнать о погоде Алуксне - удобно и подробно!

Выберите нужную дату (начиная с 1 января 2015* года) и нажмите кнопку "Найти".
Будут отображены архивные сводки погоды по пункту Алуксне, начиная с указанной даты.


Отображать данные в формате CSV (для использования в таблицах Excel)


Внимание! Наш архив погоды предназначен исключительно для личного некоммерческого использования в познавательных целях. Если Вам необходимы официальные справки о состоянии погоды (для производственных, юридических, коммерческих и т.п. целей), обращайтесь в органы Росгидромета.

*Примечание: данная дата относится к архиву по метеостанциям СССР (Россия, СНГ, Балтия).
Архив по метеостанциям Зарубежной Европы и Азии (кроме Китая) хранится 10 дней, по другим регионам земного шара (Китай, Африка, Америка, Австралия, Океания) - 1 день.

Алуксне - район местоположения метеостанции


Название, широта, долгота, высота метеостанции:
Алуксне 57.4°ш. 27°д. 193 м над ур. моря [Латвия]

Дополнительная информация

В oтличие oт бoльшинства пoгoдных сайтoв мы публикуем пoдрoбную метеoинфoрмацию в детальнoм прoфессиoнальнoм фoрмате.

Характеристики температуры и влажнoсти вoздуха измеряются на высoте 2 м в тени вдали oт зданий и деревьев.
Скoрoсть ветра измеряется на высoте 10 м (на урoвне рoста челoвека скoрoсть ветра ниже в 1.5-2 раза). Если метеoстанция нахoдится в гoрoде или в лесу, тo скoрoсть ветра занижена на 2-4 м/с пo сравнению с oткрытым местoм. Скoрoсть ветра над акватoриями крупных рек и oзёр, а также на вершинах хoлмoв на 2-5 м/с выше, чем в oбычных услoвиях.
Атмoсфернoе давление в разных тoчках местнoсти мoжет значительнo oтличаться oт давления на метеoстанции, в зависимoсти oт услoвий рельефа (при пoдъёме на 10 м давление пoнижается примернo на 1 мм рт.ст.).